Participated 1 time
in 1964
Battista Babini, Italy
Tour de France 2026 starts from Edinburgh, Scotland in

Stats and Facts from
Tour de France.

2026   2025   2024   2023  2022  2021  2020  2019   2018  2017   2016   2015  2014  2013   2012   2011  2010   2009   2008   2007   2006   2005   2004   2003   2002   2001   2000   1999   1998   1997  1996   1995   1994   1993   1992  1991   1990   1989   1988   1987   1986   1985   1984   1983  1982  1981   1980   1979  1978  1977   1976  1975  1974  1973   1972   1971   1970  1969   1968   1967   1966   1965  1964  1963   1962   1961   1960   1959   1958   1957  1956   1955   1954   1953   1952  1951  1950  1949   1948  1947  1939   1938   1937   1936   1935   1934   1933  1932   1931   1930  1929   1928   1927   1926  1925  1924  1923   1922   1921   1920   1919  1914   1913   1912   1911   1910  1909   1908   1907   1906  1905  1904   1903 

Tourstats
Sitemap

After stage 21 - 2026:
 16451 starters.
  5513 different riders.
  689 teams.
  2419 stages.
  470 restdays.
  469752.50 km.
  5946 abandoned riders.

Click map for 1995 route.
Facts from Tour de France 1995
  |   Stages.  |   Stage winners.  |   Days in jerseys.  |   Teams.  |   All riders.  |   All riders by age.  |   All riders from.  |  

  |   Rookies.  |   Withdrawls.  |   Average speed.  |   GC.  |   Polka  |   Green  |   White  |   Summits. (In tour)  |   Miscellaneous.  |  

Stage 9 on July 11th. 1995
Pick a stage:  Pro  1  2  3  4  5  6  7  8  9  10  11  12  13  14  15  17  18  19  20  

After stage 9:    Miguel Indurain  
  Le Grand-BornandLa Plagne | Dist: 160.00km. | Winner: Alex Zülle

Podium
4  Col du Marais Richard Virenqueafter16.00 km.

3  Col de l'Épine Richard Virenqueafter26.00 km.

2  Côte de Hery Laurent Brochardafter51.00 km.

1  Col des Saisies Federico Muñozafter73.50 km.

1  Cormet de Roselend Alex Zülleafter110.00 km.

HC  La Plagne - Aime Alex Zülleafter160.00 km.


Average speed for all riders in stage:  31,130 km./hr.

1
 Alex Zülle  O.N.C.E.04h 41' 18"=34,127  km/h

2
 Miguel Indurain  Banesto04h 43' 20"+  00:02:02 =33,882  km/h

3
 Pavel Tonkov  Lampre-Panaria04h 45' 29"+  00:04:11 =33,627  km/h

4  Marco Pantani  Carrera Jeans-Tassoni04h 45' 55"+  00:04:37 =33,576  km/h

5  Ivan Gotti  Gewiss-Ballan04h 45' 55"+  00:04:37 =33,576  km/h

6  Richard Virenque  Festina04h 47' 23"+  00:06:05 =33,405  km/h

7  Tony Rominger  Mapei-GP04h 47' 23"+  00:06:05 =33,405  km/h

8  Paolo Lanfranchi  Brescialat04h 47' 23"+  00:06:05 =33,405  km/h

9  Claudio Chiappucci  Carrera Jeans-Tassoni04h 47' 23"+  00:06:05 =33,405  km/h

10  Laudelino Cubino  Kelme-Avianca04h 47' 44"+  00:06:26 =33,364  km/h

11  Fernando Escartin  Mapei-GP04h 47' 51"+  00:06:33 =33,351  km/h

12  Laurent Dufaux  Festina04h 48' 00"+  00:06:42 =33,333  km/h

13  Laurent Jalabert  O.N.C.E.04h 48' 47"+  00:07:29 =33,243  km/h

14  Álvaro Mejía  Motorola04h 48' 49"+  00:07:31 =33,239  km/h

15  Hernán Buenahora  Kelme-Avianca04h 48' 49"+  00:07:31 =33,239  km/h

16  Laurent Madouas  Castorama04h 48' 49"+  00:07:31 =33,239  km/h

17  Georg Totschnig  Polti04h 48' 49"+  00:07:31 =33,239  km/h

18  Melchor Mauri  O.N.C.E.04h 48' 49"+  00:07:31 =33,239  km/h

19  Bjarne Riis  Gewiss-Ballan04h 48' 55"+  00:07:37 =33,228  km/h

20  Oscar Pelliccioli  Polti04h 49' 10"+  00:07:52 =33,199  km/h

21  Beat Zberg  Carrera Jeans-Tassoni04h 51' 09"+  00:09:51 =32,973  km/h

22  Viatcheslav Ekimov  Novell04h 52' 02"+  00:10:44 =32,873  km/h

23  Zenon Jaskuła  Aki-Gipiemme04h 52' 02"+  00:10:44 =32,873  km/h

24  Erik Breukink  O.N.C.E.04h 52' 14"+  00:10:56 =32,850  km/h

25  Mariano Rojas  O.N.C.E.04h 52' 28"+  00:11:10 =32,824  km/h

26  Federico Muñoz  Kelme-Avianca04h 52' 28"+  00:11:10 =32,824  km/h

27  Bruno Thibout  Castorama04h 53' 25"+  00:12:07 =32,718  km/h

28  Vicente Aparicio  Banesto04h 54' 04"+  00:12:46 =32,646  km/h

29  Bo Hamburger  TVM-Polis Direct04h 54' 04"+  00:12:46 =32,646  km/h

30  Bruno Cenghialta  Gewiss-Ballan04h 55' 43"+  00:14:25 =32,464  km/h

31  Jean-Cyril Robin  Festina04h 55' 43"+  00:14:25 =32,464  km/h

32  Evgueni Berzin  Gewiss-Ballan04h 58' 47"+  00:17:29 =32,130  km/h

33  Laurent Brochard  Festina04h 59' 15"+  00:17:57 =32,080  km/h

34  Alberto Elli  MG Maglificio-Technogym04h 59' 15"+  00:17:57 =32,080  km/h

35  Jean-François Bernard  Chazal-MBK-Konig04h 59' 15"+  00:17:57 =32,080  km/h

36  Johan Bruyneel  O.N.C.E.04h 59' 15"+  00:17:57 =32,080  km/h

37  Massimo Podenzana  Brescialat04h 59' 15"+  00:17:57 =32,080  km/h

38  Herminio Diaz Zabala  O.N.C.E.04h 59' 15"+  00:17:57 =32,080  km/h

39  Yvon Ledanois  Gan04h 59' 15"+  00:17:57 =32,080  km/h

40  Lance Armstrong  Motorola04h 59' 15"+  00:17:57 =32,080  km/h

41  Arsenio González  Mapei-GP05h 00' 36"+  00:19:18 =31,936  km/h

42  Leonardo Sierra  Carrera Jeans-Tassoni05h 00' 36"+  00:19:18 =31,936  km/h

43  Udo Bölts  Telecom-ZG-Selle Italia05h 00' 36"+  00:19:18 =31,936  km/h

44  Éric Boyer  Polti05h 00' 36"+  00:19:18 =31,936  km/h

45  Miguel Arroyo  Chazal-MBK-Konig05h 02' 21"+  00:21:03 =31,751  km/h

46  Alberto Volpi  Gewiss-Ballan05h 02' 58"+  00:21:40 =31,687  km/h

47  Gérard Rué  Banesto05h 07' 41"+  00:26:23 =31,201  km/h

48  Carmelo Miranda  Banesto05h 07' 41"+  00:26:23 =31,201  km/h

49  Andrea Tafi  Mapei-GP05h 08' 01"+  00:26:43 =31,167  km/h

50  Sergio Barbero  Carrera Jeans-Tassoni05h 08' 01"+  00:26:43 =31,167  km/h

51  Vladimir Pulnikov  Telecom-ZG-Selle Italia05h 08' 01"+  00:26:43 =31,167  km/h

52  Gilles Bouvard  Chazal-MBK-Konig05h 08' 01"+  00:26:43 =31,167  km/h

53  Julio César Aguirre  Kelme-Avianca05h 08' 01"+  00:26:43 =31,167  km/h

54  Eddy Bouwmans  Novell05h 08' 01"+  00:26:43 =31,167  km/h

55  Didier Rous  Gan05h 08' 01"+  00:26:43 =31,167  km/h

56  Franco Vona  MG Maglificio-Technogym05h 08' 01"+  00:26:43 =31,167  km/h

57  Francesco Frattini  Gewiss-Ballan05h 08' 01"+  00:26:43 =31,167  km/h

58  Jesper Skibby  TVM-Polis Direct05h 08' 01"+  00:26:43 =31,167  km/h

59  Aitor Garmendia  Banesto05h 08' 01"+  00:26:43 =31,167  km/h

60  Maarten Den Bakker  TVM-Polis Direct05h 08' 01"+  00:26:43 =31,167  km/h

61  Enrico Zaina  Carrera Jeans-Tassoni05h 08' 01"+  00:26:43 =31,167  km/h

62  François Simon  Castorama05h 08' 01"+  00:26:43 =31,167  km/h

63  Andrea Ferrigato  Telecom-ZG-Selle Italia05h 08' 01"+  00:26:43 =31,167  km/h

64  Jim Van De Laer  TVM-Polis Direct05h 08' 01"+  00:26:43 =31,167  km/h

65  Stephen Hodge  Festina05h 08' 01"+  00:26:43 =31,167  km/h

66  Maximilian Sciandri  MG Maglificio-Technogym05h 08' 01"+  00:26:43 =31,167  km/h

67  Djamolidine Abduzhaparov  Novell05h 08' 53"+  00:27:35 =31,080  km/h

68  Dimitri Konychev  Aki-Gipiemme05h 10' 12"+  00:28:54 =30,948  km/h

69  Maurizio Fondriest  Lampre-Panaria05h 10' 12"+  00:28:54 =30,948  km/h

70  Neil Stephens  O.N.C.E.05h 11' 32"+  00:30:14 =30,815  km/h

71  Fabian Jeker  Festina05h 11' 32"+  00:30:14 =30,815  km/h

72  Wladimir Belli  Lampre-Panaria05h 12' 23"+  00:31:05 =30,731  km/h

73  Andrea Peron  Motorola05h 12' 23"+  00:31:05 =30,731  km/h

74  Frankie Andreu  Motorola05h 14' 12"+  00:32:54 =30,554  km/h

75  Sean Yates  Motorola05h 14' 15"+  00:32:57 =30,549  km/h

76  Thierry Laurent  Castorama05h 16' 08"+  00:34:50 =30,367  km/h

77  Rolf Järmann  MG Maglificio-Technogym05h 16' 08"+  00:34:50 =30,367  km/h

78  Rolf Aldag  Telecom-ZG-Selle Italia05h 16' 08"+  00:34:50 =30,367  km/h

79  Artūras Kasputis  Chazal-MBK-Konig05h 16' 08"+  00:34:50 =30,367  km/h

80  José Ramon Uriarte  Banesto05h 16' 08"+  00:34:50 =30,367  km/h

81  Gian Matteo Fagnini  Mercatone Uno-Saeco05h 16' 08"+  00:34:50 =30,367  km/h

82  Francisco Mauleón  Mapei-GP05h 16' 08"+  00:34:50 =30,367  km/h

83  Francis Moreau  Gan05h 16' 08"+  00:34:50 =30,367  km/h

84  Serguei Utchakov  Polti05h 16' 08"+  00:34:50 =30,367  km/h

85  Gianni Bugno  MG Maglificio-Technogym05h 16' 08"+  00:34:50 =30,367  km/h

86  José Angel Vidal  Kelme-Avianca05h 16' 08"+  00:34:50 =30,367  km/h

87  Armand De Las Cuevas  Castorama05h 16' 08"+  00:34:50 =30,367  km/h

88  Marc Wauters  Novell05h 16' 08"+  00:34:50 =30,367  km/h

89  Gilberto Simoni  Aki-Gipiemme05h 16' 08"+  00:34:50 =30,367  km/h

90  Angelo Lecchi  Brescialat05h 16' 08"+  00:34:50 =30,367  km/h

91  Gilles Delion  Chazal-MBK-Konig05h 16' 08"+  00:34:50 =30,367  km/h

92  Christophe Capelle  Gan05h 16' 08"+  00:34:50 =30,367  km/h

93  François Lemarchand  Gan05h 16' 08"+  00:34:50 =30,367  km/h

94  Marco Milesi  Brescialat05h 16' 08"+  00:34:50 =30,367  km/h

95  Fabio Casartelli  Motorola05h 16' 08"+  00:34:50 =30,367  km/h

96  Gabriele Colombo  Gewiss-Ballan05h 16' 08"+  00:34:50 =30,367  km/h

97  Peter Farazijn  Lotto-Isoglass05h 16' 08"+  00:34:50 =30,367  km/h

98  Jens Heppner  Telecom-ZG-Selle Italia05h 16' 08"+  00:34:50 =30,367  km/h

99  Denis Zanette  Aki-Gipiemme05h 16' 08"+  00:34:50 =30,367  km/h

100  Thierry Marie  Castorama05h 16' 08"+  00:34:50 =30,367  km/h

101  Gianluca Bortolami  Mapei-GP05h 16' 08"+  00:34:50 =30,367  km/h

102  Marino Alonso  Banesto05h 16' 08"+  00:34:50 =30,367  km/h

103  Bruno Boscardin  Festina05h 16' 08"+  00:34:50 =30,367  km/h

104  Davide Perona  Lampre-Panaria05h 16' 08"+  00:34:50 =30,367  km/h

105  Erik Zabel  Telecom-ZG-Selle Italia05h 16' 08"+  00:34:50 =30,367  km/h

106  Giovanni Fidanza  Polti05h 16' 08"+  00:34:50 =30,367  km/h

107  Mario Scirea  Polti05h 16' 08"+  00:34:50 =30,367  km/h

108  Héctor Castaño  Kelme-Avianca05h 16' 08"+  00:34:50 =30,367  km/h

109  Ramon Gonzalez  Banesto05h 16' 08"+  00:34:50 =30,367  km/h

110  Alessio Galletti  Lampre-Panaria05h 16' 08"+  00:34:50 =30,367  km/h

111  Mauro Bettin  Aki-Gipiemme05h 16' 08"+  00:34:50 =30,367  km/h

112  Nicola Loda  MG Maglificio-Technogym05h 16' 08"+  00:34:50 =30,367  km/h

113  Ángel Camargo  Kelme-Avianca05h 16' 08"+  00:34:50 =30,367  km/h

114  Giovanni Lombardi  Polti05h 16' 08"+  00:34:50 =30,367  km/h

115  Rossano Brasi  Polti05h 16' 08"+  00:34:50 =30,367  km/h

116  Dirk Baldinger  Polti05h 16' 08"+  00:34:50 =30,367  km/h

117  Marcello Siboni  Carrera Jeans-Tassoni05h 16' 08"+  00:34:50 =30,367  km/h

118  Massimo Donati  Mercatone Uno-Saeco05h 16' 08"+  00:34:50 =30,367  km/h

119  Steve Bauer  Motorola05h 16' 08"+  00:34:50 =30,367  km/h

120  Stephen Swart  Motorola05h 16' 08"+  00:34:50 =30,367  km/h

121  Mario Cipollini  Mercatone Uno-Saeco05h 16' 08"+  00:34:50 =30,367  km/h

122  Alexander Gontchenkov  Lampre-Panaria05h 16' 08"+  00:34:50 =30,367  km/h

123  Giancarlo Perini  Brescialat05h 16' 08"+  00:34:50 =30,367  km/h

124  Arvis Piziks  Novell05h 16' 08"+  00:34:50 =30,367  km/h

125  Flavio Vanzella  MG Maglificio-Technogym05h 16' 08"+  00:34:50 =30,367  km/h

126  Bruno Cornillet  Chazal-MBK-Konig05h 16' 08"+  00:34:50 =30,367  km/h

127  Stefano Colagè  Telecom-ZG-Selle Italia05h 16' 08"+  00:34:50 =30,367  km/h

128  Massimiliano Lelli  Mercatone Uno-Saeco05h 16' 08"+  00:34:50 =30,367  km/h

129  Alessandro Bertolini  Carrera Jeans-Tassoni05h 16' 08"+  00:34:50 =30,367  km/h

130  Antonio Politano  Mercatone Uno-Saeco05h 16' 08"+  00:34:50 =30,367  km/h

131  Thomas Davy  Banesto05h 16' 08"+  00:34:50 =30,367  km/h

132  Johan Museeuw  Mapei-GP05h 16' 08"+  00:34:50 =30,367  km/h

133  Wilfried Peeters  Mapei-GP05h 16' 08"+  00:34:50 =30,367  km/h

134  Dario Bottaro  Gewiss-Ballan05h 16' 08"+  00:34:50 =30,367  km/h

135  Guido Bontempi  Gewiss-Ballan05h 16' 08"+  00:34:50 =30,367  km/h

136  Davide Cassani  MG Maglificio-Technogym05h 16' 16"+  00:34:58 =30,354  km/h

137  Gianluca Gorini  Aki-Gipiemme05h 16' 37"+  00:35:19 =30,321  km/h

138  Gilles Talmant  Castorama05h 16' 43"+  00:35:25 =30,311  km/h

139  Mauro Radaelli  Brescialat05h 18' 02"+  00:36:44 =30,186  km/h

140  Mario Chiesa  Carrera Jeans-Tassoni05h 18' 02"+  00:36:44 =30,186  km/h

141  Frans Maassen  Novell05h 18' 17"+  00:36:59 =30,162  km/h

142  Eros Poli  Mercatone Uno-Saeco05h 18' 39"+  00:37:21 =30,127  km/h

143  Jacky Durand  Castorama05h 18' 39"+  00:37:21 =30,127  km/h

144  Marco Serpellini  Lampre-Panaria05h 19' 24"+  00:38:06 =30,056  km/h

145  Bart Voskamp  TVM-Polis Direct05h 19' 48"+  00:38:30 =30,019  km/h

146  Tristan Hoffman  TVM-Polis Direct05h 19' 48"+  00:38:30 =30,019  km/h

147  Ángel Edo  Kelme-Avianca05h 20' 12"+  00:38:54 =29,981  km/h

148  Erik Dekker  Novell05h 20' 41"+  00:39:23 =29,936  km/h

149  Andrei Tchmil  Lotto-Isoglass05h 22' 34"+  00:41:16 =29,761  km/h

150  Leon van Bon  Novell05h 22' 46"+  00:41:28 =29,743  km/h

151  Jean-Pierre Bourgeot  Chazal-MBK-Konig05h 23' 12"+  00:41:54 =29,703  km/h

152  Eric Vanderaerden  Brescialat05h 25' 10"+  00:43:52 =29,523  km/h

153  Dante Rezze  Aki-Gipiemme05h 25' 10"+  00:43:52 =29,523  km/h

154  Frédéric Moncassin  Novell05h 26' 18"+  00:45:00 =29,421  km/h


Withdrawls: 15
 RiderTeamReason
125   Jelle Nijdam TVM-Polis DirectDid not finish
132   Mario De Clercq Lotto-IsoglassDid not finish
145   Emmanuel Magnien CastoramaDid not finish
176   Silvio Martinello Mercatone Uno-SaecoDid not finish
177   Roberto Petito Mercatone Uno-SaecoDid not finish
42   Carlo Bomans Mapei-GPExceeded time limit
78   Ján Svorada Lampre-PanariaExceeded time limit
83   Thierry Gouvenou GanExceeded time limit
84   Pascal Lance GanExceeded time limit
133   Peter De Clercq Lotto-IsoglassExceeded time limit
135   Herman Frison Lotto-IsoglassExceeded time limit
136   Sammie Moreels Lotto-IsoglassExceeded time limit
139   Rudy Verdonck Lotto-IsoglassExceeded time limit
189   Christophe Mengin Chazal-MBK-KonigExceeded time limit
204   Olaf Ludwig Telecom-ZG-Selle ItaliaExceeded time limit
Todays birthdays.

1896 • Andre Coutte
1907 • Eduardo Molinar
1911 • Gabriel Dubois
1932 • Serge David
1936 • Alberto Assirelli
1947 • Roberto Sorlini
1951 • Valerio Lualdi
1952 • Paulino Martinez
1955 • Erich Jagsch
1969 • Ermanno Brignoli
1971 • Fabrice Gougot
1975 • Steve De Wolf
1984 • Matti Breschel
1990 • Maurits Lammertink
1996 • Fabio Jakobsen
2002 • Ramses Debruyne

 

Optimized for Chrome - Edge
and Opera browsers.